Current Version              Previous Version:    01  02  03  04  05  06  07  08  09  10  11  12  13  14  15  16  17  18  19  20  21  22  23  24  25  26  27  28  29  30  
   31  32  33  34  35  36  37  38  39  40  41  42  43  44  45  46  47  48  49  50  51  52  53  54  55  56  57  58  59  60  

[Printable]
524
ASUS44 KFWD 160501
RWRTX
NORTH TEXAS HOURLY WEATHER ROUNDUP
NATIONAL WEATHER SERVICE FORT WORTH TX
1200 AM CDT TUE SEP 16 2014

NOTE: "FAIR" INDICATES FEW OR NO CLOUDS BELOW 12,000 FEET WITH NO
SIGNIFICANT WEATHER AND/OR OBSTRUCTIONS TO VISIBILITY.

TXZ118-119-160600-
DALLAS/FORT WORTH METROPLEX

CITY           SKY/WX    TMP DP  RH WIND       PRES   REMARKS
DFW AIRPORT    CLOUDY    79  68  69 S6        30.12S
DALLAS LOVE    CLOUDY    80  69  69 S5        30.12S
FTW MEACHAM    CLOUDY    78  70  76 S5        30.12S
DAL-EXECUTIVE  MOCLDY    78  68  71 SE3       30.12S
FTW-ALLIANCE   CLOUDY    77  68  73 SE5       30.12S
FTW-NAS-JRB    CLOUDY    83  68  60 CALM      30.17S
FTW-SPINKS     DRIZZLE   75  69  80 CALM      30.15S
ARLINGTON      CLOUDY    77  70  79 CALM      30.13S
GRAND PRAIRIE  CLOUDY    79  67  67 CALM      30.14S
ADDISON        CLOUDY    80  68  65 SE3       30.14S
MESQUITE       MOCLDY    76  69  79 CALM      30.12S
LANCASTER      MOCLDY    74  66  76 CALM      30.13S
$$

TXZ091>094-102>105-117-120-121-131>134-160600-
NORTH CENTRAL TEXAS

CITY           SKY/WX    TMP DP  RH WIND       PRES   REMARKS
SHRMAN/DENISON CLOUDY    75  70  83 E5        30.14F
GAINESVILLE    MOCLDY    74  70  88 E5        30.15F
BRIDGEPORT     CLOUDY    74  68  79 CALM      30.15S
DECATUR        CLOUDY    75  67  77 CALM      30.14S
DENTON         CLOUDY    77  69  76 CALM      30.13R
MCKINNEY       CLOUDY    76  71  85 CALM      30.13S
GREENVILLE     CLOUDY    73  68  83 CALM      30.13S
ROCKWALL       CLOUDY    76  71  83 CALM      30.12S
TERRELL        MOCLDY    78  73  84 CALM      30.13R
WAXAHACHIE     CLOUDY    75  66  75 CALM      30.15R
CLEBURNE       CLOUDY    77  70  78 CALM      30.15S
$$

TXZ083>090-098>101-113>116-127>130-139>142-154-155-160600-
WESTERN NORTH TEXAS

CITY           SKY/WX    TMP DP  RH WIND       PRES   REMARKS
WICHITA FALLS  MOCLDY    76  69  79 S7        30.13S
WF-KICKAPOO    MOCLDY    76  68  74 SE5       30.15S
VERNON         MOCLDY    79  66  65 SE7       30.15S
ABILENE        MOCLDY    74  66  76 SE7       30.17S
ABILENE-DYESS  MOCLDY    73  64  73 S5        30.16S
MINERAL WELLS  CLOUDY    76  67  73 CALM      30.13S
STEPHENVILLE   CLOUDY    74  67  79 CALM      30.18F
COMANCHE         N/A     72  70  94 CALM      30.16S
COLEMAN        CLOUDY    73  66  80 CALM      30.18R
BRADY            N/A     73  66  78 E8        30.16S
$$

TXZ143>147-156>162-174-175-160600-
CENTRAL TEXAS

CITY           SKY/WX    TMP DP  RH WIND       PRES   REMARKS
WACO           CLOUDY    75  69  81 CALM      30.13R
WACO-MCGREGOR  CLOUDY    75  66  73 E3        30.15R
CORSICANA      CLOUDY    76  72  87 S6        30.13S
MEXIA          CLOUDY    74  71  91 CALM      30.11S
HEARNE           N/A     77  72  84 CALM      30.11S
CAMERON        CLOUDY    78  72  81 E3        30.12S
TEMPLE         CLOUDY    75  66  73 E3        30.13S
KILLEEN        CLOUDY    79  68  69 E3        30.14S
KILLEEN-SKYLRK CLOUDY    75  64  69 E6        30.14S
FORT HOOD      CLOUDY    78  69  73 CALM      30.14S
HAMILTON       CLOUDY    73  67  81 SE8       30.17S
LAMPASAS       LGT RAIN  76  72  87 CALM      30.14S
$$

TXZ095>097-106>112-122>126-135>138-148>153-164>167-160600-
EAST TEXAS

CITY           SKY/WX    TMP DP  RH WIND       PRES   REMARKS
PARIS          CLOUDY    73  66  78 E6        30.15S
SULPHUR SPRNGS CLOUDY    74  70  86 E3        30.15S
MOUNT PLEASANT MOCLDY    74  70  89 CALM      30.15S
MINEOLA        CLOUDY    73  73 100 CALM      30.13F
TYLER          CLOUDY    76  71  85 NE3       30.12S
LONGVIEW       CLOUDY    76  69  79 CALM      30.12R
MARSHALL       MOCLDY    78  73  82 CALM      30.14S
ATHENS         CLOUDY    73  70  88 CALM      30.11S
PALESTINE      CLOUDY    77  72  84 CALM      30.13R
JACKSONVILLE   CLOUDY    76  72  87 CALM      30.15S
HENDERSON      CLOUDY    73  72  98 CALM      30.13S
NACOGDOCHES    MOCLDY    75  72  88 E6        30.12S
LUFKIN         PTCLDY    79  72  79 E3        30.11R
$$

SUPPLEMENTAL OBSERVATIONS (CENTRAL)

CITY           SKY/WX    TMP DP  RH WIND       PRES   REMARKS
$$

SUPPLEMENTAL OBSERVATIONS (WEST)

CITY           SKY/WX    TMP DP  RH WIND       PRES   REMARKS
$$

SUPPLEMENTAL OBSERVATIONS (EAST)

CITY           SKY/WX    TMP DP  RH WIND       PRES   REMARKS
$$

SUPPLEMENTAL OBSERVATIONS ARE A COLLECTION OF AUTOMATED INSTRUMENTS
THAT ARE MAINTAINED BY A VARIETY OF FEDERAL AND STATE AGENCIES.
CERTAIN ELEMENTS...SUCH AS HUMIDITY VALUES AND SUSTAINED WIND
SPEEDS...MAY BE APPROXIMATED.